Meteo Giornale » Osservazioni meteo Italia » Milano-Linate

ore: 08:50 - Osservazioni Meteo Milano-Linate
Lat. 45° 26' N Lon. 9° 17' E Alt. 107 metri s.l.m.

foschia Europe/Rome

30 °C

Foschia

Temp. 24 Ore

23 °C

35 °C

Nord

3.7 Km/h

Dew point 23 °C

Umidità 66 %

Visibilità  4 Km

Il sole sorge alle ore 05:34

Il sole tramonta alle ore 21:17

Data e Ora Cielo e Fenomeni T °C DP °C Um. % Pres. hPa Vis. km Vento km/h
Oggi h: 08:50 foschia Foschia 30 23 66 1020 4 N 3.7
Oggi h: 08:20 foschia Foschia 29 23 70 1020 4 N 1.8
Oggi h: 07:50 foschia Foschia 28 23 74 1020 4 N 1.8
Oggi h: 07:20 foschia Foschia 27 23 78 1020 4 N 1.8
Oggi h: 06:50 foschia Foschia 25 22 83 1021 4 N 3.7
Oggi h: 05:50 foschia Foschia 23 22 94 1021 5 N 1.8
Oggi h: 05:20 sereno Sereno 23 21 88 1021 6 N 1.8
Oggi h: 04:20 sereno Sereno 24 22 88 1021 10 N 1.8
Oggi h: 03:50 sereno Sereno 24 22 88 1021 10 N 0
Oggi h: 03:20 sereno Sereno 24 22 88 1021 10 N 1.8
Oggi h: 02:50 sereno Sereno 25 22 83 1021 10 N 1.8
Oggi h: 02:20 sereno Sereno 25 22 83 1021 10 N 1.8
Oggi h: 01:50 sereno Sereno 26 22 78 1022 10 N 1.8
Oggi h: 01:20 sereno Sereno 25 22 83 1022 10 N 1.8
Oggi h: 00:50 sereno Sereno 26 22 78 1022 10 N 1.8
Oggi h: 00:20 sereno Sereno 26 22 78 1022 10 N 1.8
Ieri h: 23:50 sereno Sereno 26 22 78 1022 10 N 1.8
Ieri h: 23:20 sereno Sereno 26 22 78 1022 10 N 1.8
Ieri h: 22:50 sereno Sereno 27 22 74 1022 10 N 3.7
Ieri h: 22:20 sereno Sereno 28 22 69 1022 10 N 1.8
Ieri h: 21:50 sereno Sereno 32 21 52 1021 10 SE 7.4
Ieri h: 21:20 sereno Sereno 32 20 49 1021 10 E/SE 7.4
Ieri h: 20:50 sereno Sereno 33 20 46 1021 10 E/SE 7.4
Ieri h: 19:50 sereno Sereno 34 20 43 1021 10 E/SE 11.1
Ieri h: 19:20 sereno Sereno 34 20 43 1021 10 S 9.3
Ieri h: 17:50 sereno Sereno 35 21 44 1021 10 S/SE 9.3
Ieri h: 17:20 sereno Sereno 35 20 41 1021 10 S/SO 9.3
Ieri h: 16:50 sereno Sereno 35 20 41 1021 10 N 5.5
Ieri h: 16:20 sereno Sereno 34 20 43 1021 10 S 9.3
Ieri h: 15:50 sereno Sereno 35 20 41 1022 10 N 9.3
Ieri h: 15:20 sereno Sereno 34 20 43 1022 10 S 7.4
Ieri h: 14:50 sereno Sereno 35 20 41 1022 10 N 5.5
Ieri h: 14:20 sereno Sereno 34 20 43 1022 10 N 9.3
Ieri h: 13:50 sereno Sereno 34 20 43 1022 10 S/SO 11.1
Ieri h: 13:20 sereno Sereno 33 20 46 1022 10 S 9.3
Ieri h: 12:50 sereno Sereno 33 20 46 1023 10 S/SE 7.4
Ieri h: 12:20 sereno Sereno 33 20 46 1023 10 S 11.1
Ieri h: 11:50 sereno Sereno 32 21 52 1023 10 S 7.4
Ieri h: 11:20 sereno Sereno 32 20 49 1023 10 S/SO 7.4
Ieri h: 10:50 sereno Sereno 31 20 52 1023 10 N 5.5
Ieri h: 10:20 sereno Sereno 31 20 52 1023 10 N 5.5
Ieri h: 09:50 sereno Sereno 30 20 55 1023 10 N 5.5